Weather History for Providence, RI

Change the Weather History Date:

Wednesday, March 6, 2013

  Actual Average Record
Temperature  
Mean Temperature 38 °F 36 °F  
Max Temperature 43 °F 45 °F 65 °F (1935)
Min Temperature 32 °F 27 °F 1 °F (1948)
Degree Days  
Heating Degree Days 27 29  
Month to date heating degree days 158 178  
Since 1 July heating degree days 3979 4240  
Cooling Degree Days 0 0  
Month to date cooling degree days 0 0  
Year to date cooling degree days 0 0  
Moisture  
Dew Point 33 °F    
Average Humidity 87    
Maximum Humidity 92    
Minimum Humidity 82    
Precipitation  
Precipitation 0.01 in 0.14 in 1.92 in (1943)
Month to date precipitation 0.01 0.86  
Year to date precipitation 6.97 8.01  
Snow  
Snow T in 0.20 in 5.60 in (1990)
Month to date snowfall T 1.5  
Since 1 July snowfall 41.4 29.2  
Snow Depth 0.00 in    
Sea Level Pressure  
Sea Level Pressure 30.01 in    
Wind  
Wind Speed 18 mph (NE)    
Max Wind Speed 32 mph    
Max Gust Speed 40 mph    
Visibility 8 miles    
Events Rain    
T = Trace of Precipitation, MM = Missing Value Source: NWS Daily Summary

Daily Weather History Graph

Daily Weather History Graph

Search for Another Location

Airport:

Trip Planner

Search our weather history database for the weather conditions in past years. The results will help you decide how hot, cold, wet, or windy it might be!

Date:

Astronomy

Mar. 06, 2013 Rise Set
Actual Time 6:12 AM EST 5:42 PM EST
Civil Twilight 5:44 AM EST 6:10 PM EST
Nautical Twilight 5:12 AM EST 6:42 PM EST
Astronomical Twilight 4:39 AM EST 7:14 PM EST
Moon 2:22 AM EST (3/6) 12:17 PM EST (3/6)
Length of Visible Light 12h 25m
Length of Day
11h 30m
Waning Crescent, 30% of the Moon is Illuminated
Mar 6
Waning Crescent
Mar 11
New
Mar 19
First Quarter
Mar 27
Full
Apr 3
Last Quarter

Hourly Weather History & Observations

Time (EST) Temp. Windchill Dew Point Humidity Pressure Visibility Wind Dir Wind Speed Gust Speed Precip Events Conditions
12:51 AM 33.1 °F 30.0 °F 28.9 °F 85% 30.04 in 10.0 mi West 3.5 mph - N/A   Mostly Cloudy
1:29 AM 33.8 °F - 30.2 °F 87% 30.04 in 10.0 mi Calm Calm - N/A   Mostly Cloudy
1:51 AM 35.1 °F 32.2 °F 30.9 °F 85% 30.04 in 10.0 mi North 3.5 mph - N/A   Overcast
2:51 AM 36.0 °F 31.1 °F 32.0 °F 86% 30.04 in 10.0 mi NNE 5.8 mph - 0.00 in   Overcast
3:20 AM 35.6 °F 28.6 °F 32.0 °F 87% 30.03 in 10.0 mi NNE 9.2 mph - N/A   Overcast
3:31 AM 35.6 °F 28.0 °F 33.8 °F 93% 30.03 in 10.0 mi NNE 10.4 mph - N/A   Overcast
3:51 AM 37.0 °F 31.0 °F 33.1 °F 86% 30.04 in 10.0 mi NNE 8.1 mph - N/A   Overcast
4:00 AM 37.4 °F 30.3 °F 33.8 °F 87% 30.04 in 10.0 mi NE 10.4 mph - N/A   Overcast
4:36 AM 35.6 °F 28.0 °F 33.8 °F 93% 30.02 in 10.0 mi NE 10.4 mph - 0.00 in   Overcast
4:51 AM 35.1 °F 28.6 °F 33.1 °F 92% 30.02 in 10.0 mi NNE 8.1 mph - 0.00 in Rain Light Rain
5:21 AM 35.6 °F 28.6 °F 33.8 °F 93% 30.01 in 9.0 mi NE 9.2 mph - N/A   Overcast
5:51 AM 37.0 °F 29.8 °F 34.0 °F 89% 30.02 in 4.0 mi NE 10.4 mph - 0.00 in Rain Light Rain
6:01 AM 37.4 °F 30.3 °F 33.8 °F 87% 30.02 in 5.0 mi NE 10.4 mph - 0.00 in Rain Light Rain
6:51 AM 37.9 °F 30.0 °F 35.1 °F 89% 30.03 in 10.0 mi NE 12.7 mph - 0.00 in   Overcast
7:01 AM 37.4 °F 28.2 °F 35.6 °F 93% 30.02 in 10.0 mi ENE 16.1 mph - 0.00 in Rain Light Rain
7:51 AM 39.0 °F 30.6 °F 34.0 °F 82% 30.03 in 10.0 mi ENE 15.0 mph 24.2 mph 0.00 in Rain Light Rain
8:51 AM 39.0 °F 30.3 °F 35.1 °F 86% 30.04 in 5.0 mi ENE 16.1 mph 27.6 mph 0.00 in Rain Light Rain
9:51 AM 39.0 °F 29.6 °F 33.1 °F 79% 30.04 in 7.0 mi ENE 18.4 mph 32.2 mph 0.00 in Rain Light Rain
10:18 AM 41.0 °F 31.4 °F 30.2 °F 65% 30.03 in 10.0 mi ENE 21.9 mph 33.4 mph 0.00 in   Overcast
10:30 AM 39.2 °F 28.3 °F 32.0 °F 75% 30.04 in 10.0 mi NE 25.3 mph 38.0 mph 0.00 in Rain Light Rain
10:43 AM 41.0 °F 31.4 °F 32.0 °F 70% 30.03 in 10.0 mi ENE 21.9 mph 32.2 mph 0.00 in   Mostly Cloudy
10:49 AM 41.0 °F 31.4 °F 30.2 °F 65% 30.03 in 10.0 mi NE 21.9 mph 34.5 mph 0.00 in   Overcast
10:51 AM 41.0 °F 30.7 °F 30.9 °F 67% 30.03 in 10.0 mi NE 25.3 mph 34.5 mph 0.00 in   Mostly Cloudy
11:04 AM 41.0 °F 30.9 °F 30.2 °F 65% 30.03 in 10.0 mi ENE 24.2 mph 31.1 mph N/A   Overcast
11:32 AM 41.0 °F 31.1 °F 28.4 °F 61% 30.03 in 10.0 mi ENE 23.0 mph 31.1 mph 0.00 in Rain Light Rain
11:51 AM 42.1 °F 33.6 °F 30.9 °F 65% 30.03 in 10.0 mi ENE 18.4 mph 28.8 mph 0.00 in Rain Light Rain
12:31 PM 39.2 °F 28.7 °F 30.2 °F 70% 30.02 in 7.0 mi ENE 23.0 mph 33.4 mph 0.00 in Rain Light Rain
12:51 PM 42.1 °F 34.5 °F 34.0 °F 73% 30.01 in 10.0 mi ENE 15.0 mph 27.6 mph 0.00 in   Mostly Cloudy
1:29 PM 41.0 °F 31.9 °F 33.8 °F 76% 29.98 in 10.0 mi NE 19.6 mph 33.4 mph 0.00 in Rain Light Rain
1:51 PM 39.9 °F 29.5 °F 33.1 °F 77% 29.99 in 9.0 mi ENE 24.2 mph 34.5 mph 0.00 in Rain Light Rain
2:51 PM 39.0 °F 29.0 °F 33.1 °F 79% 29.99 in 8.0 mi ENE 20.7 mph 33.4 mph 0.00 in Rain Light Rain
3:51 PM 37.9 °F 27.6 °F 33.1 °F 83% 29.99 in 10.0 mi ENE 20.7 mph 28.8 mph 0.00 in   Overcast
4:51 PM 37.0 °F 25.9 °F 33.1 °F 86% 30.00 in 6.0 mi NE 23.0 mph 31.1 mph 0.00 in   Light Drizzle
5:15 PM 35.6 °F 23.4 °F 33.8 °F 93% 29.97 in 4.0 mi NE 25.3 mph 35.7 mph 0.00 in Rain Light Rain
5:26 PM 35.6 °F 24.2 °F 33.8 °F 93% 29.99 in 5.0 mi NE 21.9 mph 32.2 mph 0.00 in Rain Light Rain
5:51 PM 36.0 °F 24.4 °F 33.1 °F 89% 29.99 in 6.0 mi NE 23.0 mph 34.5 mph 0.00 in   Light Drizzle
6:33 PM 35.6 °F 25.5 °F 33.8 °F 93% 30.00 in 4.0 mi NE 17.3 mph 27.6 mph 0.00 in Rain Light Rain
6:51 PM 36.0 °F 24.7 °F 33.1 °F 89% 30.00 in 4.0 mi NE 21.9 mph 36.8 mph 0.00 in Rain Light Rain
7:51 PM 36.0 °F 23.9 °F 33.1 °F 89% 29.99 in 6.0 mi NE 25.3 mph 38.0 mph 0.00 in Rain Light Rain
8:02 PM 35.6 °F 24.2 °F 33.8 °F 93% 29.99 in 6.0 mi NE 21.9 mph 31.1 mph 0.00 in Rain Light Rain
8:33 PM 35.6 °F 24.5 °F 33.8 °F 93% 29.98 in 8.0 mi NNE 20.7 mph 27.6 mph 0.01 in Rain Light Rain
8:51 PM 36.0 °F 24.2 °F 33.1 °F 89% 29.97 in 7.0 mi NNE 24.2 mph 38.0 mph 0.01 in Rain Light Rain
9:01 PM 35.6 °F 23.4 °F 33.8 °F 93% 29.98 in 5.0 mi NNE 25.3 mph 32.2 mph 0.00 in Rain Light Rain
9:51 PM 36.0 °F 23.9 °F 32.0 °F 86% 29.97 in 8.0 mi NNE 25.3 mph 35.7 mph 0.00 in   Light Drizzle
10:51 PM 36.0 °F 23.7 °F 32.0 °F 86% 29.97 in 10.0 mi NE 26.5 mph 34.5 mph 0.00 in   Overcast
11:13 PM 35.6 °F 23.4 °F 30.2 °F 81% 29.96 in 10.0 mi NNE 25.3 mph 38.0 mph N/A   Overcast
11:34 PM 35.6 °F 23.0 °F 30.2 °F 81% 29.96 in 10.0 mi NNE 27.6 mph 39.1 mph 0.00 in   Light Drizzle
11:51 PM 36.0 °F 23.9 °F 30.9 °F 82% 29.95 in 10.0 mi NNE 25.3 mph 39.1 mph 0.00 in   Light Drizzle